Free proxy list with verified HTTP, HTTPS & SOCKS proxy-servers [5]

These public free proxies are provided absolutely free of charge and do not require any authorization. Buy proxies IPv4 with unlimited bandwidth premium quality 24/7 support for a cheap price in the next section.

The public proxies listed below are provided free of charge for all visitors to our website. Our system regularly scans and verifies their availability, so you will always find up-to-date and working free proxies online at the link provided.

Please note that these free proxies have been collected from open sources on the internet. They do not require authorization and are available for your unrestricted use.

However, free proxy site cannot compete with our paid residential proxies! If you need a large pool of IP addresses with regular rotation, maximum uptime, top quality, and full compatibility with popular programs and scripts for parsers, checkers, posters, and other automated tasks — check out our offers and find out where to buy proxies.

Currently, the list contains 498 live free proxy servers.

Free proxy list was last updated on 10:01:45 02.09.2026.

# IP Port Speed The last checkup
401 SOCKS4 Free Proxy VN VN 1360 10:01:00 02.09.2026 (1 hour ago)
402 HTTPS Free Proxy IN IN 4130 10:01:00 02.09.2026 (1 hour ago)
403 SOCKS4 Free Proxy BG BG 1520 10:00:59 02.09.2026 (1 hour ago)
404 SOCKS4 Free Proxy CA CA 710 10:00:59 02.09.2026 (1 hour ago)
405 SOCKS4 Free Proxy HR HR 990 10:00:59 02.09.2026 (1 hour ago)
406 HTTP ANON Free Proxy RW RW 4050 10:00:57 02.09.2026 (1 hour ago)
407 SOCKS4 Free Proxy KE KE 500 10:00:57 02.09.2026 (1 hour ago)
408 HTTP TRANSPARENT Free Proxy PY PY 5340 10:00:55 02.09.2026 (1 hour ago)
409 HTTPS Free Proxy ID ID 2810 10:00:55 02.09.2026 (1 hour ago)
410 SOCKS4 Free Proxy LT LT 90 10:00:54 02.09.2026 (1 hour ago)
411 SOCKS4 Free Proxy VN VN 430 10:00:54 02.09.2026 (1 hour ago)
412 SOCKS5 Free Proxy US US 400 10:00:54 02.09.2026 (1 hour ago)
413 SOCKS4 Free Proxy IQ IQ 230 10:00:53 02.09.2026 (1 hour ago)
414 HTTPS Free Proxy BG BG 900 10:00:53 02.09.2026 (1 hour ago)
415 SOCKS4 Free Proxy US US 200 10:00:53 02.09.2026 (1 hour ago)
416 SOCKS5 250 10:00:53 02.09.2026 (1 hour ago)
417 HTTPS Free Proxy FR FR 2270 10:00:53 02.09.2026 (1 hour ago)
418 SOCKS5 1270 10:00:53 02.09.2026 (1 hour ago)
419 HTTP TRANSPARENT Free Proxy VE VE 3440 10:00:52 02.09.2026 (1 hour ago)
420 SOCKS4 Free Proxy PL PL 1320 10:00:52 02.09.2026 (1 hour ago)
421 HTTPS 1450 10:00:52 02.09.2026 (1 hour ago)
422 HTTPS Free Proxy US US 5850 10:00:52 02.09.2026 (1 hour ago)
423 SOCKS5 780 10:00:51 02.09.2026 (1 hour ago)
424 HTTP TRANSPARENT Free Proxy VN VN 3680 10:00:51 02.09.2026 (1 hour ago)
425 SOCKS4 Free Proxy IT IT 200 10:00:51 02.09.2026 (1 hour ago)
426 HTTP HTTPS TRANSPARENT 2790 10:00:51 02.09.2026 (1 hour ago)
427 HTTPS Free Proxy IN IN 3710 10:00:50 02.09.2026 (1 hour ago)
428 HTTPS Free Proxy PE PE 2190 10:00:50 02.09.2026 (1 hour ago)
429 HTTP ELITE Free Proxy RU RU 3820 10:00:50 02.09.2026 (1 hour ago)
430 SOCKS4 Free Proxy UA UA 710 10:00:49 02.09.2026 (1 hour ago)
431 HTTP ELITE Free Proxy RU RU 1310 10:00:49 02.09.2026 (1 hour ago)
432 HTTPS Free Proxy TH TH 2920 10:00:49 02.09.2026 (1 hour ago)
433 HTTPS Free Proxy ID ID 3340 10:00:49 02.09.2026 (1 hour ago)
434 HTTP ELITE Free Proxy US US 4280 10:00:49 02.09.2026 (1 hour ago)
435 HTTPS Free Proxy BD BD 740 10:00:48 02.09.2026 (1 hour ago)
436 HTTP TRANSPARENT Free Proxy TH TH 5620 10:00:48 02.09.2026 (1 hour ago)
437 HTTP TRANSPARENT Free Proxy AR AR 1420 10:00:48 02.09.2026 (1 hour ago)
438 HTTP TRANSPARENT 2290 10:00:48 02.09.2026 (1 hour ago)
439 SOCKS4 Free Proxy VE VE 1820 10:00:47 02.09.2026 (1 hour ago)
440 HTTPS Free Proxy ID ID 1540 10:00:45 02.09.2026 (1 hour ago)
441 SOCKS4 Free Proxy DE DE 670 10:00:45 02.09.2026 (1 hour ago)
442 HTTPS Free Proxy IN IN 1670 10:00:45 02.09.2026 (1 hour ago)
443 HTTP HTTPS ELITE Free Proxy JP JP 4030 10:00:44 02.09.2026 (1 hour ago)
444 HTTP TRANSPARENT Free Proxy BD BD 2750 10:00:44 02.09.2026 (1 hour ago)
445 HTTP TRANSPARENT 3050 10:00:43 02.09.2026 (1 hour ago)
446 HTTPS 1680 10:00:43 02.09.2026 (1 hour ago)
447 SOCKS5 Free Proxy US US 830 10:00:43 02.09.2026 (1 hour ago)
448 HTTP ELITE Free Proxy ES ES 1690 10:00:43 02.09.2026 (1 hour ago)
449 HTTP TRANSPARENT Free Proxy ID ID 1970 10:00:43 02.09.2026 (1 hour ago)
450 HTTP ELITE Free Proxy US US 3590 10:00:43 02.09.2026 (1 hour ago)
451 HTTP TRANSPARENT Free Proxy UA UA 5170 10:00:42 02.09.2026 (1 hour ago)
452 SOCKS4 Free Proxy BR BR 640 10:00:42 02.09.2026 (1 hour ago)
453 HTTP TRANSPARENT Free Proxy PH PH 2200 10:00:42 02.09.2026 (1 hour ago)
454 HTTP ELITE Free Proxy DE DE 4240 10:00:41 02.09.2026 (1 hour ago)
455 SOCKS5 Free Proxy RU RU 970 10:00:40 02.09.2026 (1 hour ago)
456 HTTPS 3050 10:00:40 02.09.2026 (1 hour ago)
457 HTTP TRANSPARENT Free Proxy US US 2200 10:00:40 02.09.2026 (1 hour ago)
458 HTTP ELITE Free Proxy KH KH 5570 10:00:39 02.09.2026 (1 hour ago)
459 HTTP TRANSPARENT Free Proxy JP JP 1490 10:00:39 02.09.2026 (1 hour ago)
460 HTTP ANON 1690 10:00:39 02.09.2026 (1 hour ago)
461 SOCKS4 SOCKS5 Free Proxy ES ES 1590 10:00:39 02.09.2026 (1 hour ago)
462 HTTP TRANSPARENT Free Proxy JP JP 5360 10:00:39 02.09.2026 (1 hour ago)
463 HTTPS Free Proxy SG SG 1390 10:00:38 02.09.2026 (1 hour ago)
464 HTTP TRANSPARENT Free Proxy JP JP 890 10:00:38 02.09.2026 (1 hour ago)
465 HTTP TRANSPARENT Free Proxy CN CN 4700 10:00:38 02.09.2026 (1 hour ago)
466 HTTPS 2510 10:00:38 02.09.2026 (1 hour ago)
467 HTTPS 2040 10:00:38 02.09.2026 (1 hour ago)
468 HTTP HTTPS ANON Free Proxy ZA ZA 3020 10:00:38 02.09.2026 (1 hour ago)
469 SOCKS5 Free Proxy KH KH 1560 10:00:38 02.09.2026 (1 hour ago)
470 HTTP HTTPS TRANSPARENT Free Proxy PH PH 1820 10:00:37 02.09.2026 (1 hour ago)
471 HTTPS 1950 10:00:36 02.09.2026 (1 hour ago)
472 HTTPS Free Proxy IR IR 1250 10:00:35 02.09.2026 (1 hour ago)
473 HTTPS 1220 10:00:34 02.09.2026 (1 hour ago)
474 SOCKS4 SOCKS5 Free Proxy US US 180 10:00:33 02.09.2026 (1 hour ago)
475 HTTP HTTPS TRANSPARENT Free Proxy ZA ZA 1970 10:00:32 02.09.2026 (1 hour ago)
476 SOCKS5 260 10:00:32 02.09.2026 (1 hour ago)
477 HTTP ELITE Free Proxy MA MA 1020 10:00:32 02.09.2026 (1 hour ago)
478 HTTP ANON Free Proxy ZW ZW 2870 10:00:32 02.09.2026 (1 hour ago)
479 HTTP HTTPS ANON 1620 10:00:30 02.09.2026 (1 hour ago)
480 HTTPS Free Proxy RO RO 1240 10:00:29 02.09.2026 (1 hour ago)
481 HTTP HTTPS TRANSPARENT Free Proxy ID ID 2180 10:00:29 02.09.2026 (1 hour ago)
482 HTTP HTTPS TRANSPARENT Free Proxy HU HU 1430 10:00:28 02.09.2026 (1 hour ago)
483 HTTP HTTPS TRANSPARENT Free Proxy US US 4100 10:00:28 02.09.2026 (1 hour ago)
484 HTTP HTTPS TRANSPARENT Free Proxy GT GT 1120 10:00:27 02.09.2026 (1 hour ago)
485 HTTPS Free Proxy US US 720 10:00:25 02.09.2026 (1 hour ago)
486 HTTP HTTPS TRANSPARENT Free Proxy PH PH 2230 10:00:25 02.09.2026 (1 hour ago)
487 HTTP ELITE Free Proxy US US 1670 10:00:20 02.09.2026 (1 hour ago)
488 HTTP ANON Free Proxy DE DE 1080 10:00:16 02.09.2026 (1 hour ago)
489 HTTPS Free Proxy US US 1850 10:00:15 02.09.2026 (1 hour ago)
490 HTTP HTTPS ELITE Free Proxy IR IR 1720 10:00:14 02.09.2026 (1 hour ago)
491 HTTP ELITE Free Proxy FR FR 2040 10:00:14 02.09.2026 (1 hour ago)
492 HTTPS Free Proxy JP JP 1340 10:00:12 02.09.2026 (1 hour ago)
493 HTTP HTTPS ANON Free Proxy HK HK 630 10:00:08 02.09.2026 (1 hour ago)
494 HTTP HTTPS ANON Free Proxy JP JP 650 10:00:08 02.09.2026 (1 hour ago)
495 HTTP HTTPS TRANSPARENT Free Proxy GB GB 170 10:00:05 02.09.2026 (1 hour ago)
496 HTTP ELITE Free Proxy IN IN 300 10:00:05 02.09.2026 (1 hour ago)
497 HTTP ELITE Free Proxy US US 300 10:00:05 02.09.2026 (1 hour ago)
498 HTTPS Free Proxy GB GB 280 10:00:05 02.09.2026 (1 hour ago)

What are free proxies and how do they work?

Free proxies are usually publicly available proxy servers or accidentally open servers with unsecured settings left without a password by system administrators.

A proxy server is an intermediary computer that facilitates data transfer between the user and internet resources, hiding the user’s real IP address.

When using a proxy server, all requests to websites are first sent to the proxy, which then forwards them to the target resource and returns the received data to the client. Thus, the remote resource sees the proxy’s IP address instead of the user’s, increasing anonymity and security.

Free proxies are divided into three main types by anonymity level: anonymous, elite, and transparent proxies.

An anonymous proxy hides the user’s IP, but the remote server can detect proxy usage via characteristic headers. An elite proxy completely hides both the use of a proxy and the client IP, providing maximum anonymity. A transparent proxy passes the user’s IP along with its own, thus offering no anonymity.

Transparent proxies send the user’s real IP address in headers to the remote resource, making them unsuitable for tasks requiring a high degree of privacy.

All our paid residential proxies are elite, ensuring maximum speed, stability, and protection. Check our "Price List" section and choose the right plan to buy reliable proxy servers.

Advantages of free proxy servers
  1. Completely free and available without registration
  2. No authorization required
  3. No restrictions on traffic volume or usage time
Disadvantages of free proxy servers
  1. High load due to many users reduces speed
  2. Most free proxies are blocked on popular internet services
  3. Limited functionality: FTP, SMTP, SSH and other protocols are often disabled

In summary: free proxies are suitable only for learning and simple tasks but do not provide stability or security for serious work. Choose our paid residential proxies with a huge, constantly updated pool of unique IP addresses that guarantee high speed, maximum anonymity, and reliable data protection. Enjoy round-the-clock technical support and forget about downtime. Start working professionally. Explore our price list and we recommend to buy proxies.